STARLINK-5297 (54158 NORAD) Tracking and Keplerian Element Data

This shows tracking and keplerian element data for the satellite.

Feedback or suggestion? Click here.




ElementValue
Catalog54158
NameSTARLINK-5297
Epoch Orbit130
Epoch Day324.91667824
Epoch Year2022
RAAN26.0764
Inclination53.2176
Eccentricity0.0001484
Argument of Perigee45.7592
Mean Anonmoly87.2437
Mean Motion15.58619234
Decay Rate-0.01187446
L11 54158U 22141B 22324.91667824 -.01187446 00000+0 -16902-1 0 9990
L22 54158 53.2176 26.0764 0001484 45.7592 87.2437 15.58619234 1302



Live tracking and technical data element details for STARLINK-5297 (NORAD 54158). STARLINK-5297 can be tracked NOW for your location showing map with azimuth and elevation plus other details from your city location.







IsCatalogInMostPopularTable: catalog: 54158, numindb: 7
Update: records affected: 1



GetName: 54158 STARLINK-5297

Hit Count: updated at: Sun, 04 Dec 2022 22:22:36 GMT